TimeEDT,TemperatureF,Dew PointF,Humidity,Sea Level PressureIn,VisibilityMPH,Wind Direction,Wind SpeedMPH,Gust SpeedMPH,PrecipitationIn,Events,Conditions,WindDirDegrees,DateUTC
12:53 AM,51.1,48.0,89,29.99,-9999.0,Calm,Calm,-,N/A,,Unknown,0,2012-11-01 04:53:00
1:53 AM,51.1,48.0,89,29.99,-9999.0,Calm,Calm,-,N/A,,Unknown,0,2012-11-01 05:53:00
2:53 AM,51.1,48.0,89,29.98,-9999.0,Calm,Calm,-,N/A,,Unknown,0,2012-11-01 06:53:00
3:53 AM,50.0,48.0,93,29.97,-9999.0,Calm,Calm,-,N/A,,Unknown,0,2012-11-01 07:53:00
4:53 AM,50.0,48.0,93,29.97,-9999.0,Calm,Calm,-,N/A,,Unknown,0,2012-11-01 08:53:00
5:53 AM,48.9,46.9,93,29.98,-9999.0,Calm,Calm,-,N/A,,Unknown,0,2012-11-01 09:53:00
6:53 AM,48.9,46.9,93,29.98,-9999.0,Calm,Calm,-,N/A,,Unknown,0,2012-11-01 10:53:00
7:53 AM,48.9,46.0,90,29.98,-9999.0,Calm,Calm,-,N/A,,Unknown,0,2012-11-01 11:53:00
8:53 AM,57.0,55.9,96,30.01,-9999.0,Calm,Calm,-,N/A,,Unknown,0,2012-11-01 12:53:00
9:53 AM,62.1,54.0,75,30.02,-9999.0,NNE,4.6,-,N/A,,Unknown,20,2012-11-01 13:53:00
10:53 AM,63.0,52.0,67,30.04,-9999.0,North,3.5,-,N/A,,Unknown,10,2012-11-01 14:53:00
11:53 AM,69.1,48.9,49,30.03,-9999.0,Calm,Calm,-,N/A,,Unknown,0,2012-11-01 15:53:00
12:53 PM,72.0,52.0,49,30.01,-9999.0,Variable,4.6,-,N/A,,Unknown,0,2012-11-01 16:53:00
1:53 PM,72.0,53.1,51,29.98,-9999.0,NNW,8.1,-,N/A,,Unknown,340,2012-11-01 17:53:00
2:53 PM,73.9,53.1,48,29.96,-9999.0,WNW,8.1,-,N/A,,Unknown,290,2012-11-01 18:53:00
3:53 PM,73.9,48.9,41,29.94,-9999.0,WNW,9.2,-,N/A,,Unknown,290,2012-11-01 19:53:00
4:53 PM,75.0,46.0,36,29.94,-9999.0,NW,8.1,-,N/A,,Unknown,320,2012-11-01 20:53:00
5:53 PM,70.0,48.0,46,29.95,-9999.0,West,6.9,-,N/A,,Unknown,270,2012-11-01 21:53:00
6:53 PM,63.0,48.9,60,29.96,-9999.0,WSW,4.6,-,N/A,,Unknown,250,2012-11-01 22:53:00
7:53 PM,55.9,48.0,75,29.98,-9999.0,Calm,Calm,-,N/A,,Unknown,0,2012-11-01 23:53:00
8:53 PM,52.0,48.0,86,30.00,-9999.0,Calm,Calm,-,N/A,,Unknown,0,2012-11-02 00:53:00
9:53 PM,50.0,46.0,86,30.02,-9999.0,Calm,Calm,-,N/A,,Unknown,0,2012-11-02 01:53:00
10:53 PM,48.9,46.0,90,30.03,-9999.0,Calm,Calm,-,N/A,,Unknown,0,2012-11-02 02:53:00
11:53 PM,48.0,46.0,93,30.03,-9999.0,Calm,Calm,-,N/A,,Unknown,0,2012-11-02 03:53:00